Airfield :
LOGIN :

Register | Disclaimer

   EN    FR    IT 

 










Legend :    VFR   Marginal VFR   IFR   Intensive IFR   Very Intensive IFR
Visi :
Ceiling :
>= 8 km
>= 3000ft
5 to 8 km
1000 to 3000 ft
1500m to 5 km
500 to 1000 ft
800 to 1500m
200 to 500 ft
< 800m
< 200 ft
Symbols :   Thunderstorms  Fog  Heavy snow  Heavy precipitations  Wind > 20 kt
SIGMETs :     Misc.  Thunderstorms  Icing  Turbulence  Mountain Waves  Volcanic Ashes







- Airport Elevation : 1822 ft


ETSL - Lechfeld AB

CURRENT METAR :
  • 200420Z 15002KT 9999 FEW090 12/12 Q1015 BLU+BLU+

EXPIRED METARs :
  • 200320Z 18003KT 9999 MIFG FEW090 13/12 Q1016 BLU+
  • 200220Z 16002KT 9999 FEW120 12/11 Q1016 BLU+

TAF TAF ETSL
Valid from the 20 at 05:00 until the 20 at 14:00 UTC


200420Z 2005/2014 09004KT 9999 NSW FEW080 SCT250 BY ETGL
No reported NOTAMs for that airfield.



MET'MAP, your aeronautical weather chart ! - Copyright ORBIFLY December 2007 - Disclaimer

ORBIFLY MET'MAP TEAM :

Programming & Development : Alexandra Zaïnal
Concept & Development : Baudouin d'Aumeries
Co-Development & Prog : Marc-Olivier Méhu
Technical & hardware support : Manuel Goepfert

Contact : metmap@orbifly.com




SOURCES & CREDITS :

   NOAA